www.pogodaiklimat.ru

Погода и климат >> Архив погоды >> Пакистан >> Бахавалнагар


ПОГОДА в Бахавалнагаре

  • Прогноз погоды в Бахавалнагаре
  • Монитор погоды в Бахавалнагаре

АРХИВ ПОГОДЫ в Бахавалнагаре

Время (UTC), дата Ветер
(напр.,м/с)
 
Видим.   Явления Облачность Т
(С)
Тd
(С)
f
(%)
Тe
(С)
Тes
(С)
Комфортность P
(гПа)
Po
(гПа)
Тmin
(С)
Tmax
(С)
R
(мм)
R24
(мм)
S
(см)
03 13.08 штиль 0 4000 м ясно +31.0 +23.9 66 +43 +51 опасность
перегрева
999.1 981.0 +28.5
06 13.08 штиль 0 4000 м ясно +34.0 +24.9 59 +47 +73 опасность
перегрева
1000.9 982.9
09 13.08 штиль 0 4000 м ясно +36.0 +24.6 52 +49 +71 опасность
перегрева
999.6 981.7
12 13.08 штиль 0 4000 м ясно +38.0 +24.0 45 +49 +53 опасность
перегрева
997.9 1000.0 +39.1
15 13.08 штиль 0 4000 м ясно +36.0 +24.0 50 +47 +47 опасность
перегрева
996.9 1000.0
18 13.08 штиль 0 4000 м ясно +34.0 +24.1 56 +46 +46 опасность
перегрева
1000.5 982.5
21 13.08 штиль 0 4000 м ясно +32.5 +24.0 61 +44 +44 опасность
перегрева
999.8 1000.0
00 14.08 штиль 0 4000 м ясно +29.5 +23.8 71 +40 +40 очень
душно
998.6 1000.0
03 14.08 штиль 0 4000 м 5/0
[As op]
+31.0 +24.6 69 +44 +49 опасность
перегрева
999.3 981.2 +29.0
06 14.08 штиль 0 4000 м 5/0
[As op]
+34.0 +24.9 59 +47 +63 опасность
перегрева
1001.4 1000.0
09 14.08 штиль 0 4000 м 5/0
[As op]
+36.5 +24.6 51 +49 +63 опасность
перегрева
1000.7 1000.0
12 14.08 штиль 0 4000 м 5/0
[As op]
+37.0 +24.4 49 +49 +52 опасность
перегрева
999.3 981.5 +38.0
15 14.08 штиль 0 4000 м 5/0
[As op]
+34.0 +24.1 56 +46 +46 опасность
перегрева
999.5 1000.0
18 14.08 штиль 0 4000 м 8/4 1200 м
[Sc As op]
+32.0 +24.2 63 +44 +44 опасность
перегрева
1000.9 1000.0
21 14.08 штиль 0 4000 м 8/4 1200 м
[Sc As op]
+30.5 +23.3 65 +41 +41 опасность
перегрева
1000.0 981.8
00 15.08 штиль 0 4000 м 8/4 1200 м
[Sc As op]
+28.0 +22.1 70 +36 +36 очень
душно
999.2 1000.0
03 15.08 штиль 0 4000 м 4/0
[As op]
+30.5 +24.1 69 +42 +48 опасность
перегрева
1000.0 1000.0 +27.5
06 15.08 штиль 0 4000 м ясно +34.0 +24.9 59 +47 +73 опасность
перегрева
1002.4 984.4
09 15.08 штиль 0 4000 м ясно +37.0 +25.2 51 +51 +73 опасность
перегрева
1001.6 983.8
12 15.08 штиль 0 4000 м 8/4 1200 м
[Sc As op]
+37.0 +25.2 51 +51 +52 опасность
перегрева
999.6 1000.0 +38.1
15 15.08 штиль 0 4000 м 8/4 1200 м
[Sc As op]
+33.0 +25.3 64 +47 +47 опасность
перегрева
1000.6 1000.0
18 15.08 штиль 0 4000 м 4/0
[As op]
+31.0 +25.4 72 +45 +45 опасность
перегрева
999.8 1000.0
21 15.08 штиль 0 4000 м 4/0
[As op]
+29.5 +24.5 75 +42 +42 опасность
перегрева
999.5 1000.0
00 16.08 штиль 0 4000 м 8/4 1200 м
[Sc As op]
+28.0 +23.7 77 +38 +38 очень
душно
999.1 980.8
03 16.08 штиль 0 4000 м ясно +30.5 +24.1 69 +42 +50 опасность
перегрева
1000.6 1000.0 +27.5
06 16.08 штиль 0 4000 м 4/0
[As op]
+35.0 +25.3 57 +49 +66 опасность
перегрева
1000.6 1000.0
09 16.08 штиль 0 4000 м 4/0
[As op]
+38.0 +25.6 49 +52 +67 опасность
перегрева
999.3 1000.0
12 16.08 ЮВ 1 4000 м 4/0
[As op]
+38.0 +25.6 49 +52 +54 опасность
перегрева
996.7 1000.0 +39.1
15 16.08 штиль 0 4000 м 4/0
[As op]
+35.0 +25.3 57 +49 +49 опасность
перегрева
997.9 1000.0
18 16.08 штиль 0 4000 м 8/4 1200 м
[Sc As op]
+32.5 +24.8 64 +46 +46 опасность
перегрева
998.8 1000.0
21 16.08 штиль 0 4000 м 8/4 1200 м
[Sc As op]
+31.0 +23.9 66 +43 +43 опасность
перегрева
1000.5 1000.0
00 17.08 штиль 0 4000 м 8/4 1200 м
[Sc As op]
+28.0 +22.9 74 +37 +37 очень
душно
998.2 1000.0
03 17.08 штиль 0 4000 м 4/0
[As op]
+30.0 +24.3 72 +42 +47 опасность
перегрева
999.1 1000.0 +27.5
06 17.08 штиль 0 4000 м 4/0
[As op]
+34.5 +24.7 57 +48 +65 опасность
перегрева
999.7 1000.0
09 17.08 СВ 1 4000 м 5/0
[As op]
+37.0 +24.4 49 +49 +61 опасность
перегрева
997.5 1000.0
12 17.08 СВ 1 4000 м 5/0
[As op]
+35.0 +25.3 57 +49 +51 опасность
перегрева
997.0 1000.0 +38.1
15 17.08 СВ 1 4000 м 5/0
[As op]
+32.0 +25.0 67 +46 +46 опасность
перегрева
998.3 1000.0
18 17.08 штиль 0 4000 м 8/4 1200 м
[Sc As op]
+30.0 +23.5 68 +41 +41 опасность
перегрева
999.1 1000.0
21 17.08 штиль 0 4000 м 8/4 1200 м
[Sc As op]
+27.0 +22.6 77 +36 +36 очень
душно
998.5 980.1
00 18.08 штиль 0 4000 м 8/4 1200 м
[Sc As op]
+25.0 +20.5 76 +31 +31 очень
душно
997.7 1000.0
03 18.08 штиль 0 4000 м 4/0
[As op]
+27.0 +21.8 73 +35 +40 очень
душно
1000.4 982.0 +24.5
06 18.08 штиль 0 4000 м ясно +33.0 +25.7 66 +48 +73 опасность
перегрева
1003.1 1000.0
09 18.08 штиль 0 4000 м 5/0
[As op]
+37.0 +25.2 51 +51 +64 опасность
перегрева
1001.7 1000.0
12 18.08 штиль 0 4000 м 8/4 1200 м
[Sc As op]
+35.0 +24.5 55 +48 +49 опасность
перегрева
1001.4 983.5 +38.0
15 18.08 штиль 0 4000 м 8/4 1200 м
[Sc As op]
+32.0 +23.4 60 +43 +43 опасность
перегрева
1003.1 1000.0
18 18.08 штиль 0 4000 м 4/0
[As op]
+30.5 +23.3 65 +41 +41 опасность
перегрева
1003.7 1000.0
21 18.08 штиль 0 4000 м ясно +29.0 +22.4 68 +38 +38 очень
душно
1003.0 984.7
00 19.08 штиль 0 4000 м в посл. час дождь 8/4 1200 м
[Sc As op]
+24.5 +21.5 83 +31 +31 очень
душно
1004.0 1000.0 4
03 19.08 штиль 0 4000 м 4/0
[As op]
+28.0 +22.1 70 +36 +41 очень
душно
1004.7 986.3 +24.0
06 19.08 штиль 0 4000 м ясно 1005.3 1000.0
09 19.08 штиль 0 4000 м ясно +36.0 +24.9 53 +49 +71 опасность
перегрева
1003.9 1000.0
12 19.08 штиль 0 4000 м 5/0
[As op]
+36.0 +24.9 53 +49 +51 опасность
перегрева
1002.7 1000.0 +37.1
15 19.08 штиль 0 4000 м 8/4 1200 м
[Sc As op]
+33.0 +23.8 59 +45 +45 опасность
перегрева
1004.4 986.3
18 19.08 штиль 0 4000 м 4/0 1200 м
[As op]
+31.0 +23.1 63 +41 +41 опасность
перегрева
1005.3 1000.0
21 19.08 штиль 0 4000 м 4/0
[As op]
+28.5 +21.9 67 +37 +37 очень
душно
1004.5 1000.0

 

Местоположение метеостанции Бахавалнагар (Пакистан): широта 29.95 долгота 73.25 высота над уровнем моря 163 м.

В архиве по умолчанию представлена погода в Бахавалнагаре за последнюю неделю. Архивные данные за месяц целиком и за предыдущие месяцы, начиная с января 2011 года, Вы можете получить, выбрав интересующий диапазон дат из раскрывающегося списка и нажав кнопку "Ввод!".


*Определитесь, кто Вы:
робот инопланетянин человек

Внимание! Время в таблицах - всемирное. Для получения местного времени необходимо прибавить поправку, которая равна 5 ч.

Смотрите также архив погоды в соседних городах и на ближайших метеорологических станциях:

Погода в Шри-Ганганагаре (Раджастхан, Индия) (62 км)
Погода в Сахивале (Пакистан) (82 км)
Погода в Окаре (Пакистан) (96 км)
Погода в Ханевале (Пакистан) (136 км)
Погода на Авиабазе Raifiqui (Пакистан) (137 км)
Погода в Тоба Тек Сингх (Пакистан) (137 км)
Погода в Бахавалпуре (Пакистан) (155 км)
Погода а Бахавалпур аэропорту (Пакистан) (155 км)
Погода в Фейсалабаде (Пакистан) (165 км)
Погода в Джанге (Пакистан) (172 км)

Пояснения к столбцам:

Ветер - указаны скорость ветра в м/с - средняя за 10 мин, порывы в срок и между сроками (в фигурных скобках) и направление, откуда дует ветер: С - северный, СВ - северо-восточный, В - восточный, ЮВ - юго-восточный, Ю - южный, ЮЗ - юго-западный, З - западный, СЗ - северо-западный.
Видимость - горизонтальная дальность видимости в метрах или километрах. При видимости от 1 до 10 км при отсутствии осадков обычно наблюдается дымка, при ухудшении видимости до 1 км и менее - туман. В сухую погоду видимость может ухудшаться дымом, пылью или мглою.
Явления - указаны атмосферные явления, наблюдавшиеся в срок или в последний час перед сроком; фигурными скобками обозначены явления, наблюдавшиеся между сроками (за 1-3 часа до срока); квадратными скобками обозначены град или гололедные отложения с указанием их диаметра в мм.
Облачность - указаны через наклонную черту общая и нижняя облачность в баллах и высота нижней границы облаков в метрах; квадратными скобками обозначены формы облаков: Ci - перистые, Cs - перисто-слоистые, Cc - перисто-кучевые, Ac - высококучевые, As - высокослоистые, Sc - слоисто-кучевые, Ns - слоисто-дождевые, Cu - кучевые, Cb - кучево-дождевые. Подробнее классификацию облаков см. в Атласе облаков (PDF).
T - Температура воздуха - температура, измеренная на высоте 2 м над землей.
Td - Температура точки росы - температура, при понижении до которой содержащийся в воздухе водяной пар достигнет насыщения.
f - Относительная влажность воздуха - влажноcть воздуха, измеренная на высоте 2 м над землей.
Te - Эффективная температура - температура, которую ощущает одетый по сезону человек в тени. Характеристика душности погоды. При расчете учитывается влияние влажности воздуха и скорости ветра на теплоощущения человека.
Tes - Эффективная температура на солнце - температура, которую ощущает человек, с поправкой на солнечный нагрев. Характеристика знойности погоды. Зависит от высоты солнца над горизонтом, облачности и скорости ветра. Ночью, в пасмурную погоду, а также при ветре 12 м/с и более поправка равна нулю.
P - Атмосферное давление - приведенное к уровню моря атмосферное давление.
Po - Атмосферное давление - измеренное на уровне метеостанции атмосферное давление.
Tmin - Минимальная температура - минимум температуры воздуха на высоте 2 м над землей.
Tmax - Максимальная температура - максимум температуры воздуха на высоте 2 м над землей.
R - Количество осадков - Количество выпавших осадков за период времени, мм. При наведении курсора мыши на число - период времени, за который выпало указанное количество осадков.
R24 - Количество осадков - Количество выпавших осадков за 24 часа, мм.
S - Снежный покров - Высота снежного покрова, см. При наведении курсора мыши на число - состояние снежного покрова и степень покрытия местности в баллах.